G0BMH-13 Weather Reports


time (UTC)temp
C
wind
direction
speed
KPH
gust
KPH
rain 1hr
cm
rain 24hr
cm
rain mn
cm
humidity
%
barometer
mb
20260507190004 12 153 1.6 9.7 0.00 0.00 0.00 62 1014.4
20260507185503 12 163 1.6 9.7 0.00 0.00 0.00 60 1014.5
20260507185024 12 181 3.2 9.7 0.00 0.00 0.00 59 1014.6
20260507184504 12 182 3.2 9.7 0.00 0.00 0.00 59 1014.6
20260507184024 12 178 3.2 9.7 0.00 0.00 0.00 59 1014.3
20260507183503 12 174 3.2 9.7 0.00 0.00 0.00 58 1014.3
20260507183003 12 177 3.2 11.3 0.00 0.00 0.00 58 1014.3
20260507182503 12 187 4.8 11.3 0.00 0.00 0.00 58 1014.3
20260507182004 12 196 4.8 9.7 0.00 0.00 0.00 57 1014.2
20260507181524 12 195 4.8 11.3 0.00 0.00 0.00 57 1014.4
20260507181003 12 199 4.8 11.3 0.00 0.00 0.00 57 1014.3
20260507180503 12 202 3.2 11.3 0.00 0.00 0.00 57 1014.3
20260507180004 12 205 4.8 11.3 0.00 0.00 0.00 56 1014.2
20260507175503 12 202 4.8 11.3 0.00 0.00 0.00 55 1014.2
20260507175003 12 188 3.2 11.3 0.00 0.00 0.00 55 1014.4
20260507174503 12 179 3.2 9.7 0.00 0.00 0.00 56 1014.3
20260507174003 12 176 3.2 12.9 0.00 0.00 0.00 57 1014.1
20260507173503 12 175 3.2 12.9 0.00 0.00 0.00 56 1014.2
20260507173024 12 164 3.2 11.3 0.00 0.00 0.00 57 1014.2
20260507172503 12 166 3.2 11.3 0.00 0.00 0.00 55 1014.2
20260507172003 13 168 3.2 11.3 0.00 0.00 0.00 55 1014.1
20260507171503 13 169 3.2 9.7 0.00 0.00 0.00 55 1014.3
20260507171003 13 167 3.2 9.7 0.00 0.00 0.00 56 1014.2
20260507170503 13 165 1.6 9.7 0.00 0.00 0.00 54 1014.3
20260507170024 13 159 1.6 6.4 0.00 0.00 0.00 56 1014.2
20260507165503 13 154 1.6 6.4 0.00 0.00 0.00 55 1014.3
20260507165003 13 162 1.6 6.4 0.00 0.00 0.00 56 1014.4
20260507164503 13 149 1.6 9.7 0.00 0.00 0.00 57 1014.3
20260507164024 13 146 3.2 9.7 0.00 0.00 0.00 56 1014.3
20260507163524 12 150 3.2 6.4 0.00 0.00 0.00 55 1014.4
20260507163004 12 171 3.2 9.7 0.00 0.00 0.00 56 1014.3
20260507162503 13 200 3.2 11.3 0.00 0.00 0.00 56 1014.4
20260507162003 13 214 4.8 11.3 0.00 0.00 0.00 54 1014.5
20260507161503 13 202 3.2 11.3 0.00 0.00 0.00 55 1014.3
20260507161025 13 185 3.2 9.7 0.00 0.00 0.00 54 1014.3
20260507160503 13 186 3.2 12.9 0.00 0.00 0.00 54 1014.5
20260507160003 13 174 3.2 12.9 0.00 0.00 0.00 53 1014.5
20260507155503 13 162 3.2 11.3 0.00 0.00 0.00 53 1014.5
20260507155003 13 170 3.2 12.9 0.00 0.00 0.00 53 1014.4
20260507154524 14 175 3.2 12.9 0.00 0.00 0.00 51 1014.4
20260507154003 14 186 3.2 12.9 0.00 0.00 0.00 52 1014.5
20260507153504 14 182 4.8 11.3 0.00 0.00 0.00 51 1014.2
20260507153024 14 173 4.8 12.9 0.00 0.00 0.00 51 1014.5
20260507152503 14 173 4.8 12.9 0.00 0.00 0.00 51 1014.4
20260507152003 14 182 4.8 14.5 0.00 0.00 0.00 55 1014.4
20260507151503 13 192 6.4 14.5 0.00 0.00 0.00 55 1014.5
20260507151003 13 178 4.8 12.9 0.00 0.00 0.00 54 1014.6
20260507150503 14 159 3.2 11.3 0.00 0.00 0.00 54 1014.5
20260507150004 13 187 4.8 14.5 0.00 0.00 0.00 56 1014.6
20260507145503 13 192 4.8 14.5 0.00 0.00 0.00 56 1014.4
20260507145003 13 182 4.8 16.1 0.00 0.00 0.00 56 1014.7
20260507144524 13 187 4.8 16.1 0.00 0.00 0.00 56 1014.6
20260507144003 13 199 4.8 12.9 0.00 0.00 0.00 56 1014.7
20260507143503 14 206 4.8 14.5 0.00 0.00 0.00 55 1014.8
20260507143003 13 206 4.8 14.5 0.00 0.00 0.00 57 1015.0
20260507142503 13 186 4.8 14.5 0.00 0.00 0.00 56 1015.2
20260507142003 13 181 4.8 17.7 0.00 0.00 0.00 57 1015.1
20260507141524 13 207 4.8 17.7 0.00 0.00 0.00 56 1015.3
20260507141024 13 212 6.4 16.1 0.00 0.00 0.00 56 1015.1
20260507140503 13 178 4.8 16.1 0.00 0.00 0.00 56 1015.3
20260507140003 13 173 4.8 14.5 0.00 0.00 0.00 57 1015.2
20260507135504 13 199 3.2 14.5 0.00 0.00 0.00 58 1015.3
20260507135003 13 187 3.2 9.7 0.00 0.00 0.00 56 1015.1
20260507134524 13 189 4.8 12.9 0.00 0.00 0.00 56 1015.2
20260507134004 12 187 4.8 12.9 0.00 0.00 0.00 58 1015.2
20260507133503 13 173 3.2 12.9 0.00 0.00 0.00 58 1015.3
20260507133024 12 181 3.2 11.3 0.00 0.00 0.00 58 1015.5
20260507132503 12 164 4.8 14.5 0.00 0.00 0.00 58 1015.4
20260507132003 12 172 4.8 14.5 0.00 0.00 0.00 57 1015.5
20260507131503 12 193 4.8 14.5 0.00 0.00 0.00 59 1015.4
20260507131003 12 186 4.8 14.5 0.00 0.00 0.00 59 1015.4
20260507130524 12 179 4.8 12.9 0.00 0.00 0.00 60 1015.2
20260507130003 12 180 4.8 11.3 0.00 0.00 0.00 61 1015.4
20260507125503 11 181 4.8 16.1 0.00 0.00 0.00 60 1015.3
20260507125003 11 169 4.8 16.1 0.00 0.00 0.00 60 1015.4
20260507124524 11 165 4.8 14.5 0.00 0.00 0.00 60 1015.4
20260507124003 11 155 4.8 14.5 0.00 0.00 0.00 61 1015.4
20260507123503 11 152 3.2 12.9 0.00 0.00 0.00 62 1015.6
20260507123024 11 167 3.2 9.7 0.00 0.00 0.00 64 1015.5
20260507122503 11 164 3.2 9.7 0.00 0.00 0.00 65 1015.5
20260507122004 11 174 3.2 11.3 0.00 0.00 0.00 65 1015.7
20260507121503 10 139 3.2 11.3 0.00 0.00 0.00 66 1015.7
20260507121003 10 107 3.2 11.3 0.00 0.00 0.00 67 1015.6
20260507120503 10 115 4.8 12.9 0.00 0.00 0.00 67 1015.6
20260507120004 10 126 4.8 12.9 0.00 0.00 0.00 67 1015.4
20260507115503 10 121 4.8 14.5 0.00 0.00 0.00 67 1015.3
20260507115003 10 124 6.4 14.5 0.00 0.00 0.00 67 1015.5
20260507114503 10 123 4.8 14.5 0.00 0.00 0.00 67 1015.5
20260507114003 10 119 4.8 12.9 0.00 0.00 0.00 69 1015.4
20260507113524 9 119 4.8 12.9 0.00 0.00 0.00 70 1015.5
20260507113004 9 106 6.4 12.9 0.00 0.00 0.00 71 1015.4
20260507112503 9 106 6.4 16.1 0.00 0.00 0.00 71 1015.4
20260507112003 9 105 6.4 16.1 0.00 0.00 0.00 73 1015.4
20260507111504 8 99 8.0 16.1 0.00 0.00 0.00 73 1015.4
20260507111003 8 101 8.0 16.1 0.00 0.00 0.00 73 1015.6
20260507110503 8 110 6.4 14.5 0.00 0.00 0.00 74 1015.5
20260507110003 8 112 6.4 14.5 0.00 0.00 0.00 74 1015.5
20260507105503 8 115 6.4 14.5 0.00 0.00 0.00 75 1015.6
20260507105003 8 109 8.0 17.7 0.00 0.00 0.00 75 1015.7
20260507104504 8 105 6.4 17.7 0.00 0.00 0.00 76 1015.7
20260507104024 8 114 6.4 17.7 0.00 0.00 0.00 75 1015.7
20260507103524 8 129 4.8 14.5 0.00 0.00 0.00 75 1015.7
20260507103003 8 130 4.8 12.9 0.00 0.00 0.00 75 1015.7
20260507102503 8 114 4.8 12.9 0.00 0.00 0.00 76 1015.5
20260507102003 8 120 4.8 12.9 0.00 0.00 0.00 76 1015.6
20260507101503 8 122 4.8 16.1 0.00 0.00 0.00 76 1015.6
20260507101003 8 122 6.4 16.1 0.00 0.00 0.00 76 1015.5
20260507100503 7 136 6.4 14.5 0.00 0.00 0.00 76 1015.8
20260507100003 7 140 4.8 14.5 0.00 0.00 0.00 76 1015.5
20260507095503 7 134 4.8 14.5 0.00 0.00 0.00 76 1015.6
20260507095003 7 136 4.8 12.9 0.00 0.00 0.00 76 1015.7
20260507094503 7 134 4.8 11.3 0.00 0.00 0.00 76 1015.6
20260507094003 7 116 4.8 12.9 0.00 0.00 0.00 76 1015.6
20260507093503 8 119 3.2 12.9 0.00 0.00 0.00 76 1015.5
20260507093003 8 127 4.8 11.3 0.00 0.00 0.00 76 1015.5
20260507092524 7 125 4.8 11.3 0.00 0.00 0.00 77 1015.5
20260507092003 7 130 4.8 12.9 0.00 0.00 0.00 77 1015.6
20260507091503 7 137 4.8 14.5 0.00 0.00 0.00 76 1015.4
20260507091024 7 147 4.8 14.5 0.00 0.00 0.00 76 1015.4
20260507090503 8 147 4.8 16.1 0.00 0.00 0.00 77 1015.4
20260507090004 8 141 4.8 16.1 0.00 0.00 0.00 76 1015.5
20260507085503 8 144 4.8 14.5 0.00 0.00 0.00 76 1015.5
20260507085003 8 141 6.4 16.1 0.00 0.00 0.00 76 1015.6
20260507084503 8 132 6.4 16.1 0.00 0.00 0.00 76 1015.4
20260507084003 8 140 4.8 14.5 0.00 0.00 0.00 76 1015.4
20260507083503 8 140 4.8 16.1 0.00 0.00 0.00 76 1015.4
20260507083003 7 131 4.8 16.1 0.00 0.00 0.00 77 1015.4
20260507082503 7 138 4.8 14.5 0.00 0.00 0.00 77 1015.5
20260507082003 7 141 4.8 11.3 0.00 0.00 0.00 77 1015.4
20260507081503 7 135 4.8 11.3 0.00 0.00 0.00 78 1015.4
20260507081003 7 124 3.2 11.3 0.00 0.00 0.00 78 1015.5
20260507080503 7 124 3.2 12.9 0.00 0.00 0.00 78 1015.6
20260507080003 7 140 3.2 12.9 0.00 0.00 0.00 78 1015.3
20260507075524 7 143 3.2 9.7 0.00 0.00 0.00 78 1015.4
20260507075003 7 152 3.2 12.9 0.00 0.00 0.00 78 1015.6
20260507074503 7 150 3.2 12.9 0.00 0.00 0.00 79 1015.4
20260507074003 7 147 3.2 12.9 0.00 0.00 0.00 79 1015.4
20260507073503 7 98 1.6 6.4 0.00 0.00 0.00 79 1015.3
20260507073003 7 124 1.6 9.7 0.00 0.00 0.00 79 1015.5
20260507072503 7 149 1.6 11.3 0.00 0.00 0.00 79 1015.3
20260507072024 7 175 1.6 11.3 0.00 0.00 0.00 79 1015.5
20260507071503 6 122 1.6 9.7 0.00 0.00 0.00 79 1015.4
20260507071003 6 122 1.6 9.7 0.00 0.00 0.00 79 1015.4
20260507070503 6 116 3.2 11.3 0.00 0.00 0.00 80 1015.4
20260507070005 6 119 3.2 11.3 0.00 0.00 0.00 80 1015.3
20260507065503 6 139 3.2 9.7 0.00 0.00 0.00 80 1015.3
20260507065003 6 155 3.2 9.7 0.00 0.00 0.00 80 1015.4
20260507064524 6 159 3.2 9.7 0.00 0.00 0.00 80 1015.5
20260507064003 6 119 3.2 11.3 0.00 0.00 0.00 81 1015.4
20260507063503 6 126 3.2 14.5 0.00 0.00 0.00 81 1015.4
20260507063003 6 121 4.8 14.5 0.00 0.00 0.00 81 1015.4
20260507062503 6 121 4.8 12.9 0.00 0.00 0.00 81 1015.3
20260507062004 6 139 3.2 12.9 0.00 0.00 0.00 81 1015.4
20260507061504 6 133 3.2 11.3 0.00 0.00 0.00 82 1015.4
20260507061024 6 133 3.2 11.3 0.00 0.00 0.00 82 1015.3
20260507060503 6 137 3.2 11.3 0.00 0.00 0.00 82 1015.2
20260507060003 6 152 3.2 11.3 0.00 0.00 0.00 82 1015.4
20260507055504 6 188 1.6 11.3 0.00 0.00 0.00 81 1015.4
20260507055003 6 216 1.6 11.3 0.00 0.00 0.00 81 1015.3
20260507054524 6 226 1.6 11.3 0.00 0.00 0.00 82 1015.4
20260507054003 6 222 1.6 9.7 0.00 0.00 0.00 82 1015.1
20260507053524 6 149 1.6 6.4 0.00 0.00 0.00 82 1015.1
20260507053004 5 125 3.2 9.7 0.00 0.00 0.00 82 1015.1
20260507052524 5 112 3.2 9.7 0.00 0.00 0.00 82 1015.0
20260507052004 5 117 3.2 9.7 0.00 0.00 0.00 81 1015.2
20260507051503 5 151 3.2 9.7 0.00 0.00 0.00 81 1015.1
20260507051024 5 159 3.2 11.3 0.00 0.00 0.00 82 1015.2
20260507050503 5 166 4.8 14.5 0.00 0.00 0.00 81 1015.1
20260507050024 5 193 3.2 14.5 0.00 0.00 0.00 81 1015.2
20260507045503 5 215 1.6 6.4 0.00 0.00 0.00 81 1015.1
20260507045003 5 193 1.6 6.4 0.00 0.00 0.00 81 1015.1
20260507044503 5 223 1.6 9.7 0.00 0.00 0.00 81 1015.1
20260507044003 5 121 1.6 11.3 0.00 0.00 0.00 81 1014.8
20260507043503 5 126 1.6 11.3 0.00 0.00 0.00 81 1015.1
20260507043003 5 83 1.6 6.4 0.00 0.00 0.00 81 1014.8
20260507042503 5 65 1.6 4.8 0.00 0.00 0.00 80 1015.0
20260507042003 5 106 1.6 4.8 0.00 0.00 0.00 80 1015.1
20260507041503 5 123 1.6 9.7 0.00 0.00 0.00 80 1015.0
20260507041024 5 149 3.2 9.7 0.00 0.00 0.00 80 1015.2
20260507040503 5 131 3.2 12.9 0.00 0.00 0.00 80 1015.1
20260507040003 5 108 3.2 12.9 0.00 0.00 0.00 79 1015.0
20260507035503 5 100 3.2 9.7 0.00 0.00 0.00 79 1015.2
20260507035003 5 99 3.2 9.7 0.00 0.00 0.00 79 1015.1
20260507034503 5 101 3.2 11.3 0.00 0.00 0.00 79 1015.1
20260507034003 5 106 3.2 11.3 0.00 0.00 0.00 78 1015.1
20260507033503 5 134 3.2 11.3 0.00 0.00 0.00 78 1015.1
20260507033003 5 162 3.2 14.5 0.00 0.00 0.00 78 1015.2
20260507032504 5 160 3.2 14.5 0.00 0.00 0.00 78 1015.2
20260507032003 5 154 3.2 12.9 0.00 0.00 0.00 78 1015.0
20260507031503 5 149 3.2 12.9 0.00 0.00 0.00 78 1015.1
20260507031003 5 141 1.6 9.7 0.00 0.00 0.00 78 1015.1
20260507030503 5 121 3.2 9.7 0.00 0.00 0.00 78 1015.4
20260507030003 5 112 1.6 11.3 0.00 0.00 0.00 78 1015.1
20260507025504 5 129 1.6 11.3 0.00 0.00 0.00 77 1015.3
20260507025003 5 126 3.2 9.7 0.00 0.00 0.00 77 1015.2
20260507024503 5 125 3.2 9.7 0.00 0.00 0.00 77 1015.5
20260507024003 5 147 1.6 6.4 0.00 0.00 0.00 78 1015.5
20260507023503 5 209 1.6 4.8 0.00 0.00 0.00 78 1015.5
20260507023003 5 150 1.6 4.8 0.00 0.00 0.00 78 1015.4
20260507022503 5 157 1.6 6.4 0.00 0.00 0.00 78 1015.6
20260507022003 5 226 1.6 6.4 0.00 0.00 0.00 78 1015.4
20260507021524 5 220 1.6 6.4 0.00 0.00 0.00 78 1015.3
20260507021003 5 138 1.6 6.4 0.00 0.00 0.00 78 1015.5
20260507020504 5 121 3.2 12.9 0.00 0.00 0.00 78 1015.4
20260507020003 5 112 3.2 12.9 0.00 0.00 0.00 78 1015.2
20260507015504 5 103 4.8 11.3 0.00 0.00 0.00 79 1015.3
20260507015024 5 98 4.8 12.9 0.00 0.00 0.00 79 1015.2
20260507014503 5 101 4.8 16.1 0.00 0.00 0.00 79 1015.4
20260507014003 5 110 4.8 16.1 0.00 0.00 0.00 80 1015.1
20260507013503 5 101 6.4 12.9 0.00 0.00 0.00 80 1015.3
20260507013004 5 98 6.4 12.9 0.00 0.00 0.00 80 1015.2
20260507012503 5 101 6.4 12.9 0.00 0.00 0.00 80 1015.3
20260507012003 5 107 6.4 12.9 0.00 0.00 0.00 80 1015.3
20260507011503 5 111 6.4 16.1 0.00 0.00 0.00 80 1015.4
20260507011003 5 108 6.4 16.1 0.00 0.00 0.00 80 1015.3
20260507010503 5 108 6.4 14.5 0.00 0.00 0.00 80 1015.1
20260507010004 5 105 6.4 14.5 0.00 0.00 0.00 79 1015.3
20260507005503 5 110 6.4 16.1 0.00 0.00 0.00 79 1015.4
20260507005004 5 112 6.4 16.1 0.00 0.00 0.00 79 1015.7
20260507004504 5 104 8.0 14.5 0.00 0.00 0.00 80 1015.4
20260507004003 5 97 8.0 14.5 0.00 0.00 0.00 80 1015.5
20260507003524 5 95 6.4 14.5 0.00 0.00 0.00 80 1015.4
20260507003003 5 101 6.4 12.9 0.00 0.00 0.00 80 1015.5
20260507002503 5 103 6.4 12.9 0.00 0.00 0.00 80 1015.7
20260507002003 5 103 6.4 11.3 0.00 0.00 0.00 80 1015.7
20260507001504 5 104 6.4 12.9 0.00 0.00 0.00 81 1015.7
20260507001024 5 98 6.4 12.9 0.00 0.00 0.00 81 1015.5
20260507000503 5 101 6.4 14.5 0.00 0.00 0.00 81 1015.7
20260507000003 5 102 8.0 14.5 0.00 0.00 0.00 81 1015.5
20260506235503 5 94 8.0 16.1 0.00 0.00 0.00 81 1015.8
20260506235004 5 93 9.7 16.1 0.00 0.00 0.00 81 1015.7
20260506234503 5 98 8.0 16.1 0.00 0.00 0.00 81 1015.7
20260506234003 5 103 8.0 16.1 0.00 0.00 0.00 81 1015.8
20260506233503 5 103 8.0 14.5 0.00 0.00 0.00 81 1015.9
20260506233024 5 103 6.4 16.1 0.00 0.00 0.00 81 1015.9
20260506232503 5 103 8.0 16.1 0.00 0.00 0.00 81 1015.9
20260506232003 5 100 8.0 16.1 0.00 0.00 0.00 81 1015.9
20260506231503 5 98 9.7 16.1 0.00 0.00 0.00 81 1015.9
20260506231025 5 100 9.7 16.1 0.00 0.00 0.00 81 1015.8
20260506230503 5 102 9.7 16.1 0.00 0.00 0.00 80 1015.9
20260506230003 5 99 8.0 16.1 0.00 0.00 0.00 80 1015.8
20260506225503 5 96 8.0 14.5 0.00 0.00 0.00 81 1016.1
20260506225003 5 101 8.0 14.5 0.00 0.00 0.00 81 1015.9
20260506224524 5 103 8.0 16.1 0.00 0.00 0.00 80 1016.2
20260506224024 5 101 8.0 16.1 0.00 0.00 0.00 79 1016.0
20260506223503 5 101 6.4 12.9 0.00 0.00 0.00 79 1016.0
20260506223003 5 105 6.4 14.5 0.00 0.00 0.00 79 1016.0
20260506222503 5 110 6.4 14.5 0.00 0.00 0.00 78 1016.0
20260506222003 5 107 8.0 14.5 0.00 0.00 0.00 78 1015.9
20260506221504 5 100 8.0 14.5 0.00 0.00 0.00 78 1015.9
20260506221003 5 99 8.0 14.5 0.00 0.00 0.00 78 1015.7
20260506220524 5 96 9.7 17.7 0.00 0.00 0.00 77 1015.9
20260506220024 5 92 8.0 17.7 0.00 0.00 0.00 77 1015.8
20260506215503 5 95 8.0 14.5 0.00 0.00 0.00 77 1015.8
20260506215003 5 99 8.0 16.1 0.00 0.00 0.00 77 1015.6
20260506214503 5 97 8.0 16.1 0.00 0.00 0.00 77 1015.7
20260506214003 5 100 9.7 16.1 0.00 0.00 0.00 77 1015.9
20260506213503 6 99 8.0 16.1 0.00 0.00 0.00 76 1015.6
20260506213024 6 95 8.0 16.1 0.00 0.00 0.00 77 1015.6
20260506212503 6 97 8.0 14.5 0.00 0.00 0.00 77 1015.9
20260506212003 6 100 8.0 14.5 0.00 0.00 0.00 76 1015.6
20260506211524 6 99 8.0 16.1 0.00 0.00 0.00 76 1015.6
20260506211004 6 99 8.0 16.1 0.00 0.00 0.00 76 1015.7
20260506210503 6 101 8.0 17.7 0.00 0.00 0.00 76 1015.8
20260506210024 6 100 8.0 17.7 0.00 0.00 0.00 76 1015.7
20260506205503 6 99 6.4 12.9 0.00 0.00 0.00 76 1015.7
20260506205003 6 104 6.4 12.9 0.00 0.00 0.00 76 1015.8
20260506204503 6 106 6.4 12.9 0.00 0.00 0.00 76 1015.9
20260506204003 6 102 6.4 12.9 0.00 0.00 0.00 76 1015.8
20260506203503 6 99 6.4 12.9 0.00 0.00 0.00 76 1015.6
20260506203003 6 97 6.4 12.9 0.00 0.00 0.00 75 1015.7
20260506202504 6 95 6.4 12.9 0.00 0.00 0.00 75 1015.7
20260506202003 6 100 6.4 12.9 0.00 0.00 0.00 74 1015.6
20260506201503 6 107 6.4 12.9 0.00 0.00 0.00 74 1015.5
20260506201003 6 103 6.4 12.9 0.00 0.00 0.00 73 1015.5
20260506200524 6 102 6.4 12.9 0.00 0.00 0.00 73 1015.5
20260506200004 7 100 6.4 12.9 0.00 0.00 0.00 72 1015.3
20260506195503 7 100 6.4 14.5 0.00 0.00 0.00 72 1015.3
20260506195024 7 101 6.4 14.5 0.00 0.00 0.00 71 1015.4
20260506194504 7 101 6.4 14.5 0.00 0.00 0.00 71 1015.3
20260506194003 7 102 6.4 14.5 0.00 0.00 0.00 70 1015.5
20260506193503 7 103 6.4 14.5 0.00 0.00 0.00 70 1015.3
20260506193003 8 101 6.4 12.9 0.00 0.00 0.00 69 1015.2
20260506192503 8 102 6.4 17.7 0.00 0.00 0.00 68 1015.2
20260506192024 8 107 6.4 17.7 0.00 0.00 0.00 67 1015.3
20260506191506 8 106 6.4 14.5 0.00 0.00 0.00 66 1015.1
20260506191003 8 101 6.4 14.5 0.00 0.00 0.00 65 1015.3
20260506190524 8 96 6.4 14.5 0.00 0.00 0.00 65 1015.1